This demonstration page uses our WeatherBlox Daily Observations layout. Learn more.

Left ArrowRight Arrow

39.08367, -84.50855

Hourly Observations for May 16, 2019

Temp ( °F °C ) Dew Point ( °F °C ) Humidity (%) Winds ( mph kmh ) Pressure ( in mb ) Visibility ( mi km ) Precip ( " mm )
12:53 am 00:53 Clear 51 10.6 49 9.4 92 92 N N/A 30.00 1016 7 11 N/A
1:53 am 01:53 Clear 51 10.6 49 9.4 92 92 N N/A 29.99 1016 7 11 N/A
2:10 am 02:10 Clear with Mist and Fog 50 10 49 9.4 96 96 N N/A 30.01 1016 1 2 N/A
2:17 am 02:17 Clear with Fog 50 10 49 9.4 96 96 N N/A 30.01 1016 0 0 N/A
2:27 am 02:27 Clear with Fog 50 10 49 9.4 96 96 N N/A 30.01 1016 1 1 N/A
2:38 am 02:38 Clear with Mist and Fog 49 9.4 48 8.9 97 97 N N/A 30.01 1016 2 3 N/A
2:45 am 02:45 Clear with Mist and Fog 50 10 48 8.9 93 93 N N/A 30.01 1016 6 10 N/A
2:53 am 02:53 Clear 49 9.4 48 8.9 97 97 N N/A 29.99 1016 7 11 N/A
2:58 am 02:58 Clear with Mist and Fog 48 8.9 47 8.3 96 96 N N/A 30.01 1016 2 3 N/A
3:07 am 03:07 Clear with Mist and Fog 49 9.4 48 8.9 97 97 VRB 5 7 30.01 1016 3 5 N/A
3:53 am 03:53 Clear with Mist and Fog 48 8.9 47 8.3 96 96 ESE 6 9 29.99 1016 3 4 N/A
4:02 am 04:02 Clear with Mist and Fog 48 8.9 47 8.3 96 96 VRB 5 7 30.01 1016 4 6 N/A
4:22 am 04:22 Clear with Mist and Fog 48 8.9 47 8.3 96 96 VRB 5 7 30.01 1016 2 2 N/A
4:43 am 04:43 Clear with Mist and Fog 48 8.9 47 8.3 96 96 N N/A 30.01 1016 3 5 N/A
4:53 am 04:53 Clear with Mist and Fog 48 8.9 47 8.3 96 96 N N/A 30.00 1016 3 4 N/A
5:03 am 05:03 Clear with Mist and Fog 48 8.9 46 7.8 93 93 N N/A 30.02 1017 2 2 N/A
5:38 am 05:38 Clear with Mist and Fog 47 8.3 46 7.8 97 97 VRB 3 6 30.02 1017 1 2 N/A
5:46 am 05:46 Clear with Mist and Fog 47 8.3 46 7.8 97 97 undefined N/A 30.03 1017 1 1 N/A
5:49 am 05:49 Clear with Mist and Fog 46 8 46 8 100 100 N N/A 30.03 1017 2 3 N/A
5:53 am 05:53 Clear with Mist and Fog 47 8.3 46 7.8 97 97 VRB 3 6 30.01 1016 2 3 N/A
6:27 am 06:27 Sunny with Fog 47 8.3 46 7.8 97 97 N N/A 30.02 1017 1 1 N/A
6:50 am 06:50 Sunny with Patchy Fog 46 8 45 7 93 93 VRB 3 6 30.03 1017 6 10 N/A
6:53 am 06:53 Sunny with Patchy Fog 46 7.8 45 7.2 96 96 VRB 5 7 30.01 1016 6 10 N/A
7:53 am 07:53 Sunny with Mist and Fog 51 10.6 50 10 96 96 N N/A 30.03 1017 5 8 N/A
8:53 am 08:53 Sunny 56 13.3 54 12.2 93 93 N N/A 30.03 1017 7 11 N/A
9:53 am 09:53 Sunny 63 17.2 56 13.3 78 78 N N/A 30.01 1016 10 16 N/A
10:53 am 10:53 Sunny 69 20.6 59 15 70 70 S 6 9 29.99 1016 10 16 N/A
11:53 am 11:53 Partly Cloudy 72 22.2 57 13.9 59 59 SW 5 7 29.99 1016 10 16 N/A
12:53 pm 12:53 Partly Cloudy 74 23.3 57 13.9 56 56 SSW 10 17 29.97 1015 10 16 N/A
1:53 pm 13:53 Partly Cloudy 75 23.9 57 13.9 54 54 S 13 20 29.95 1014 10 16 N/A
2:53 pm 14:53 Sunny 75 23.9 57 13.9 54 54 SSW 15 24 29.92 1013 10 16 N/A
3:53 pm 15:53 Sunny 76 24.4 57 13.9 52 52 SSW 10 17 29.90 1013 10 16 N/A
4:53 pm 16:53 Mostly Sunny 75 23.9 58 14.4 55 55 S 10 17 29.88 1012 10 16 N/A
5:53 pm 17:53 Sunny 75 23.9 57 13.9 54 54 SW 10 17 29.87 1012 10 16 N/A
6:53 pm 18:53 Sunny 73 22.8 57 13.9 57 57 SSW 8 13 29.88 1012 10 16 N/A
7:53 pm 19:53 Cloudy with Light Rain 70 21.1 62 16.7 76 76 W 5 7 29.91 1013 10 16 0.01 0.25
8:53 pm 20:53 Cloudy with Rain 65 18.3 63 17.2 93 93 S 9 15 29.88 1012 5 8 0.13 3.30
9:53 pm 21:53 Mostly Cloudy with Light Rain 64 17.8 62 16.7 93 93 S 5 7 29.84 1010 10 16 0.08 2.03
10:53 pm 22:53 Clear 63 17.2 61 16.1 93 93 SW 7 11 29.83 1010 10 16 N/A
11:53 pm 23:53 Partly Cloudy 63 17.2 61 16.1 93 93 SSW 9 15 29.81 1010 10 16 N/A

Powered by AerisWeather